Starlink 5179

operational
NORAD ID: 54102 Int'l Des: 2022-136 Owner: SPXS Country: US Constellation: starlink
LEOCIRCULAR

About Starlink 5179

Description loading...

Live Position

Loading 3D Globe...

Upcoming Passes

Altitude History

Altitude vs Time

uPlot chart will show altitude changes over time

Two-Line Element Set

1 54102U 22136BD 26063.12521981 -.00001922 00000-0 -10271-3 0 9992
2 54102 53.2189 359.1166 0001407 65.8807 294.2332 15.08833120186145
Epoch: Mar 4, 2026 • Age: 8 hours

Current Status

Altitude 540.5 km
Velocity 7.60 km/s
Sub-Earth Point 29.24°N, 101.6°E
Launch Date Oct 20, 2022
Age 3.3 years
Type internet

Technical Details

Classification Payload
Mass 305.00 kg
Dry Mass 290.00 kg
Total Mass 305.00 kg
Length 0.20 m
Diameter 2.80 m
Span 9.00 m
Shape Box + pan
Manufacturer SPXS
Bus Type Starlink
Phase Status In Orbit
Owner/State SPXS/US

Large Constellations

Loading constellations...